Weather History for KLLQ - May, 2014

Change the Weather History Date:

Friday, May 9, 2014

  Actual Average Record
Temperature  
Mean Temperature 70 °F -  
Max Temperature 77 °F 78 °F 90 °F (2011)
Min Temperature 62 °F 55 °F 43 °F (1984)
Cooling Degree Days 4    
Growing Degree Days 20 (Base 50)    
Moisture  
Dew Point 65 °F    
Average Humidity 84    
Maximum Humidity 94    
Minimum Humidity 71    
Precipitation  
Precipitation 0.30 in - - ()
Sea Level Pressure  
Sea Level Pressure 29.93 in    
Wind  
Wind Speed 11 mph (South)    
Max Wind Speed 22 mph    
Max Gust Speed 41 mph    
Visibility 10 miles    
Events Rain    
Averages and records for this station are not official NWS values.
T = Trace of Precipitation, MM = Missing Value Source: NWS Daily Summary

Daily Weather History Graph

Daily Weather History Graph

Search for Another Location

Airport or City:

Trip Planner

Search our weather history database for the weather conditions in past years. The results will help you decide how hot, cold, wet, or windy it might be!

Date:

Astronomy

May. 09, 2014 Rise Set
Actual Time 6:11 AM CDT 7:56 PM CDT
Civil Twilight 5:43 AM CDT 8:23 PM CDT
Nautical Twilight 5:11 AM CDT 8:56 PM CDT
Astronomical Twilight 4:36 AM CDT 9:30 PM CDT
Moon 3:08 PM CDT (5/9) 2:57 AM CDT (5/9)
Length of Visible Light 14h 39m
Length of Day
13h 45m
Waxing Gibbous, 74% of the Moon is Illuminated
May 9
Waxing Gibbous
May 14
Full
May 21
Last Quarter
May 28
New
Jun 5
First Quarter

Hourly Weather History & Observations

Time (CDT) Temp. Dew Point Humidity Pressure Visibility Wind Dir Wind Speed Gust Speed Precip Events Conditions
12:35 AM 68.0 °F 64.4 °F 88% 29.93 in 5.0 mi SW 11.5 mph 21.9 mph 0.17 in Rain Rain
12:42 AM 66.2 °F 64.4 °F 94% 29.92 in 7.0 mi SW 19.6 mph 32.2 mph 0.19 in Rain Rain
12:49 AM 66.2 °F 64.4 °F 94% 29.92 in 6.0 mi WSW 13.8 mph 32.2 mph 0.20 in Rain Rain
12:53 AM 66.9 °F 64.0 °F 90% 29.92 in 6.0 mi WSW 15.0 mph 25.3 mph 0.21 in Rain Rain
1:53 AM 64.9 °F 63.0 °F 93% 29.92 in 8.0 mi SW 4.6 mph - 0.07 in Rain Light Rain
2:34 AM 64.4 °F 62.6 °F 94% 29.94 in 10.0 mi SSW 10.4 mph - 0.01 in Rain Light Rain
2:53 AM 64.9 °F 63.0 °F 93% 29.90 in 10.0 mi SSW 4.6 mph - 0.01 in Rain Light Rain
4:53 AM 64.0 °F 62.1 °F 93% 29.92 in 10.0 mi South 8.1 mph - 0.00 in   Partly Cloudy
5:25 AM 62.6 °F 60.8 °F 94% 29.93 in 10.0 mi South 8.1 mph - N/A   Scattered Clouds
5:53 AM 63.0 °F 61.0 °F 93% 29.93 in 10.0 mi SSE 9.2 mph - N/A   Partly Cloudy
7:34 AM 64.4 °F 60.8 °F 88% 29.96 in 10.0 mi South 6.9 mph - 0.00 in   Mostly Cloudy
7:53 AM 64.0 °F 62.1 °F 93% 29.96 in 10.0 mi Variable 4.6 mph - 0.00 in   Scattered Clouds
8:53 AM 66.9 °F 64.0 °F 90% 29.98 in 10.0 mi Variable 6.9 mph - N/A   Mostly Cloudy
9:53 AM 72.0 °F 66.0 °F 81% 29.97 in 10.0 mi South 11.5 mph 20.7 mph N/A   Partly Cloudy
10:53 AM 73.0 °F 66.0 °F 79% 29.98 in 10.0 mi SSW 9.2 mph - N/A   Overcast
11:53 AM 73.9 °F 66.9 °F 79% 29.98 in 10.0 mi South 9.2 mph - N/A   Overcast
12:32 PM 73.4 °F 64.4 °F 73% 29.99 in 10.0 mi South 13.8 mph 25.3 mph N/A   Mostly Cloudy
12:53 PM 73.9 °F 64.9 °F 73% 29.98 in 10.0 mi South 11.5 mph 24.2 mph N/A   Overcast
1:00 PM 73.4 °F 66.2 °F 78% 29.98 in 10.0 mi South 11.5 mph - N/A   Mostly Cloudy
1:53 PM 73.9 °F 66.0 °F 76% 29.96 in 10.0 mi South 11.5 mph 23.0 mph N/A   Overcast
2:38 PM 75.2 °F 66.2 °F 73% 29.96 in 10.0 mi South 12.7 mph 25.3 mph N/A   Mostly Cloudy
2:53 PM 77.0 °F 66.9 °F 71% 29.95 in 10.0 mi South 12.7 mph 21.9 mph N/A   Overcast
3:53 PM 75.9 °F 66.0 °F 71% 29.92 in 10.0 mi South 13.8 mph 21.9 mph N/A   Overcast
4:53 PM 75.9 °F 66.0 °F 71% 29.90 in 10.0 mi South 11.5 mph 19.6 mph N/A   Mostly Cloudy
5:53 PM 73.9 °F 66.0 °F 76% 29.88 in 10.0 mi South 11.5 mph 20.7 mph N/A   Mostly Cloudy
6:01 PM 73.4 °F 66.2 °F 78% 29.90 in 10.0 mi South 9.2 mph 16.1 mph N/A   Scattered Clouds
6:31 PM 73.4 °F 66.2 °F 78% 29.91 in 10.0 mi SSE 9.2 mph - N/A   Mostly Cloudy
6:53 PM 72.0 °F 66.0 °F 81% 29.88 in 10.0 mi ESE 8.1 mph 19.6 mph N/A   Mostly Cloudy
7:20 PM 71.6 °F 66.2 °F 83% 29.87 in 10.0 mi SSE 11.5 mph 17.3 mph N/A   Mostly Cloudy
7:53 PM 71.1 °F 66.0 °F 84% 29.90 in 10.0 mi WNW 4.6 mph - N/A   Overcast
8:53 PM 71.1 °F 66.0 °F 84% 29.91 in 10.0 mi Calm Calm - N/A   Overcast
9:53 PM 71.1 °F 66.0 °F 84% 29.90 in 10.0 mi South 8.1 mph - N/A   Mostly Cloudy
10:53 PM 70.0 °F 66.0 °F 87% 29.89 in 10.0 mi SSW 10.4 mph 20.7 mph 0.00 in   Partly Cloudy
11:53 PM 69.1 °F 66.0 °F 90% 29.84 in 10.0 mi South 21.9 mph 41.4 mph 0.01 in Rain Light Rain